Weather History for Topeka, KS

Change the Weather History Date:

Sunday, February 3, 2013

  Actual Average Record
Temperature  
Mean Temperature 41 °F 31 °F  
Max Temperature 52 °F 42 °F 75 °F (1934)
Min Temperature 30 °F 21 °F -9 °F (1996)
Degree Days  
Heating Degree Days 24 34  
Month to date heating degree days 97 102  
Since 1 July heating degree days 2805 3212  
Cooling Degree Days 0 0  
Month to date cooling degree days 0 0  
Year to date cooling degree days 0 0  
Moisture  
Dew Point 23 °F    
Average Humidity 53    
Maximum Humidity 78    
Minimum Humidity 27    
Precipitation  
Precipitation 0.00 in 0.04 in 1.21 in (2012)
Month to date precipitation 0.00 0.12  
Year to date precipitation 0.55 0.98  
Snow  
Snow 0.00 in 0.20 in 8.00 in (1901)
Month to date snowfall 0.0 0.6  
Year to date snowfall 1.5 5.5  
Since 1 July snowfall 6.9 12.0  
Snow Depth 0.00 in    
Sea Level Pressure  
Sea Level Pressure 30.12 in    
Wind  
Wind Speed 9 mph (SW)    
Max Wind Speed 16 mph    
Max Gust Speed 23 mph    
Visibility 10 miles    
Events      
T = Trace of Precipitation, MM = Missing Value Source: NWS Daily Summary

Daily Weather History Graph

Daily Weather History Graph

Search for Another Location

Airport:

Trip Planner

Search our weather history database for the weather conditions in past years. The results will help you decide how hot, cold, wet, or windy it might be!

Date:

Astronomy

Feb. 03, 2013 Rise Set
Actual Time 7:26 AM CST 5:46 PM CST
Civil Twilight 6:58 AM CST 6:14 PM CST
Nautical Twilight 6:27 AM CST 6:46 PM CST
Astronomical Twilight 5:55 AM CST 7:17 PM CST
Moon 12:55 AM CST (2/3) 11:24 AM CST (2/3)
Length of Visible Light 11h 15m
Length of Day
10h 19m
Waning Gibbous, 48% of the Moon is Illuminated
Feb 3
Waning Gibbous
Feb 10
New
Feb 17
First Quarter
Feb 25
Full
Mar 4
Last Quarter

Hourly Weather History & Observations

Time (CST) Temp. Windchill Dew Point Humidity Pressure Visibility Wind Dir Wind Speed Gust Speed Precip Events Conditions
12:53 AM 37.0 °F 30.4 °F 28.0 °F 70% 30.20 in 10.0 mi WNW 9.2 mph - N/A   Clear
1:53 AM 37.9 °F 30.9 °F 27.0 °F 65% 30.22 in 10.0 mi NW 10.4 mph - N/A   Clear
2:53 AM 37.9 °F 30.9 °F 26.1 °F 62% 30.23 in 10.0 mi WNW 10.4 mph - N/A   Clear
3:53 AM 37.0 °F 29.3 °F 25.0 °F 62% 30.24 in 10.0 mi WNW 11.5 mph - N/A   Clear
4:53 AM 35.1 °F 27.4 °F 25.0 °F 67% 30.25 in 10.0 mi WNW 10.4 mph - N/A   Clear
5:53 AM 34.0 °F 27.2 °F 25.0 °F 70% 30.27 in 10.0 mi WNW 8.1 mph - N/A   Clear
6:53 AM 32.0 °F 26.4 °F 24.1 °F 73% 30.28 in 10.0 mi West 5.8 mph - N/A   Clear
7:53 AM 30.9 °F 25.2 °F 24.1 °F 76% 30.30 in 10.0 mi West 5.8 mph - N/A   Clear
8:53 AM 35.1 °F 29.3 °F 26.1 °F 70% 30.32 in 10.0 mi West 6.9 mph - N/A   Clear
9:53 AM 39.9 °F 36.7 °F 21.0 °F 47% 30.28 in 10.0 mi North 4.6 mph - N/A   Clear
10:53 AM 41.0 °F 37.1 °F 17.1 °F 38% 30.27 in 10.0 mi East 5.8 mph - N/A   Clear
11:53 AM 43.0 °F 38.8 °F 18.0 °F 37% 30.22 in 10.0 mi ESE 6.9 mph - N/A   Clear
12:53 PM 46.0 °F 41.4 °F 17.1 °F 31% 30.18 in 10.0 mi South 9.2 mph - N/A   Clear
1:53 PM 50.0 °F - 18.0 °F 28% 30.13 in 10.0 mi South 9.2 mph - N/A   Clear
2:53 PM 50.0 °F - 18.0 °F 28% 30.09 in 10.0 mi South 12.7 mph - N/A   Clear
3:53 PM 52.0 °F - 19.9 °F 28% 30.05 in 10.0 mi South 9.2 mph - N/A   Clear
4:53 PM 50.0 °F - 21.9 °F 33% 30.01 in 10.0 mi South 12.7 mph - N/A   Clear
5:53 PM 48.0 °F - 23.0 °F 37% 30.00 in 10.0 mi South 8.1 mph - N/A   Clear
6:53 PM 46.9 °F - 25.0 °F 42% 29.99 in 10.0 mi South 8.1 mph - N/A   Clear
7:53 PM 46.0 °F 41.9 °F 26.1 °F 46% 29.96 in 10.0 mi South 8.1 mph - N/A   Clear
8:53 PM 46.0 °F 41.0 °F 26.1 °F 46% 29.93 in 10.0 mi South 10.4 mph - N/A   Clear
9:53 PM 46.0 °F 41.0 °F 26.1 °F 46% 29.91 in 10.0 mi SSW 10.4 mph - N/A   Clear
10:53 PM 46.9 °F - 26.1 °F 44% 29.87 in 10.0 mi South 8.1 mph - N/A   Clear
11:53 PM 48.0 °F - 26.1 °F 42% 29.84 in 10.0 mi SSW 12.7 mph 23.0 mph N/A   Clear